Location: LDNL
(36.4545°S, 141.6685°E)
Time: 12:48:05
(UTC+10:00)

Explorer 7 - Pass Details

Date: 15 August 2022
Orbit: 482 x 668 km, 50.3° (Epoch: 26 September)

Event Time Altitude Azimuth Distance (km) Brightness Sun altitude
Rises 00:26:21 0° 232° (SW) 2,882 - -67.6°
Reaches altitude 10° 00:28:44 10° 231° (SW) 1,941 - -67.7°
Maximum altitude 00:33:10 88° 315° (NW) 575 - -67.8°
Drops below altitude 10° 00:37:18 10° 49° (NE) 1,803 - -67.8°
Sets 00:39:26 0° 49° (NE) 2,658 - -67.8°
